This is the latest recevied weather packets stored in our database for station/object K2ATL. If no packets are shown the sender has not sent any weather packets the latest 10 day(s).
| Time | Temp. | Humidity | Pressure | Rain* | Wind** | Luminosity | Snow |
|---|---|---|---|---|---|---|---|
| 1787705382 | 23.89° C | 65% | 1103.9 hPa | 0 mm | - | 0 W/m² | - |
| 1787705077 | 24.44° C | 65% | 1103.7 hPa | 0 mm | - | 0 W/m² | - |
| 1787704773 | 24.44° C | 65% | 1103.9 hPa | 0 mm | - | 0 W/m² | - |
| 1787704470 | 24.44° C | 65% | 1103.7 hPa | 0 mm | - | 0 W/m² | - |
| 1787704170 | 25° C | 65% | 1103.7 hPa | 0 mm | - | 0 W/m² | - |
| 1787703869 | 24.44° C | 67% | 1103.9 hPa | 0 mm | - | 1 W/m² | - |
| 1787703565 | 25° C | 66% | 1103.7 hPa | 0 mm | - | 1 W/m² | - |
| 1787703264 | 25° C | 67% | 1103.6 hPa | 0 mm | - | 3 W/m² | - |
| 1787702960 | 25.56° C | 67% | 1103.2 hPa | 0 mm | - | 5 W/m² | - |
| 1787702656 | 25.56° C | 67% | 1103.3 hPa | 0 mm | - | 8 W/m² | - |
| 1787702350 | 25.56° C | 65% | 1103.3 hPa | 0 mm | - | 11 W/m² | - |
| 1787702050 | 26.11° C | 64% | 1103.3 hPa | 0 mm | - | 15 W/m² | - |
| 1787701748 | 26.67° C | 63% | 1103.2 hPa | 0 mm | - | 21 W/m² | - |
| 1787701443 | 26.67° C | 64% | 1103.3 hPa | 0 mm | - | 22 W/m² | - |
| 1787701143 | 26.11° C | 65% | 1103.3 hPa | 0 mm | - | 27 W/m² | - |
| 1787700838 | 26.11° C | 63% | 1103.3 hPa | 0 mm | - | 37 W/m² | - |
| 1787700535 | 26.67° C | 66% | 1103.1 hPa | 0 mm | - | 57 W/m² | - |
| 1787700230 | 26.67° C | 65% | 1103.2 hPa | 0 mm | - | 35 W/m² | - |
| 1787699927 | 26.67° C | 65% | 1103.1 hPa | 0 mm | - | 66 W/m² | - |
| 1787699627 | 27.22° C | 64% | 1103.2 hPa | 0 mm | - | 72 W/m² | - |
| 1787699322 | 26.67° C | 68% | 1103.2 hPa | 0 mm | - | 79 W/m² | - |
| 1787699018 | 26.67° C | 62% | 1103.2 hPa | 0 mm | - | 113 W/m² | - |
| 1787698713 | 26.67° C | 66% | 1103.4 hPa | 0 mm | - | 135 W/m² | - |
| 1787698409 | 27.22° C | 60% | 1103.5 hPa | 0 mm | - | 137 W/m² | - |
| 1787698106 | 26.67° C | 62% | 1103.4 hPa | 0 mm | - | 158 W/m² | - |
* Rain latest hour (hover to see other rain measurements)
** Current wind speed in m/s (hover to see current wind gust speed)